Regional Weather Roundup
Issued by NWS

Home | Current Version | Previous Version | Text Only | Print | Product List | Glossary On
Versions: 1 2 3 4 5 6 7 8 9 10 11 12 13 14 15 16 17 18 19 20 21 22 23 24 25 26 27 28 29 30 31 32 33 34 35 36 37 38 39 40 41 42 43 44 45 46 47 48 49 50
000
ASUS44 KMEG 290910
RWRTN
TENNESSEE HOURLY STATE WEATHER ROUNDUP
NATIONAL WEATHER SERVICE MEMPHIS TN
400 AM CDT FRI APR 29 2016

TNZ002-004-019-021-049-052-054-088>092-291000-
WEST TENNESSEE

CITY           SKY/WX    TMP DP  RH WIND       PRES   REMARKS
MEMPHIS INTL   CLOUDY    68  50  52 E8        29.95R
NWS MEMPHIS      N/A     58 N/A N/A MISG        N/A
JACKSON        CLOUDY    55  53  93 CALM      29.97R
DYERSBURG      PTCLDY    57  52  82 CALM      29.98S
UNION CITY     CLEAR     54  54 100 NE3       29.97S
LEXINGTON      CLEAR     54  52  94 CALM      29.97S
$$

TNZ008-025-027-028-033-062-065-066-291000-
NORTH MIDDLE TENNESSEE

CITY           SKY/WX    TMP DP  RH WIND       PRES   REMARKS
NASHVILLE      CLOUDY    56  53  90 S5        30.00R
CLARKSVILLE    CLOUDY    54  51  90 CALM      30.00R
SMYRNA         CLOUDY    54  54 100 CALM      30.01S FOG
COOKEVILLE     CLEAR     48  48 100 CALM      30.01S
CROSSVILLE     CLEAR     63  48  58 N5        30.04S
$$

TNZ061-075-076-078-094-096-097-291000-
SOUTH MIDDLE TENNESSEE

CITY           SKY/WX    TMP DP  RH WIND       PRES   REMARKS
FAYETTEVILLE   CLEAR     63  54  72 NE7       30.00S
TULLAHOMA      CLEAR     55  55 100 CALM      30.02R
WINCHESTER     CLEAR     52  50  93 CALM      30.02R
MCMINNVILLE    CLEAR     54  54 100 CALM      30.02S
COLUMBIA       CLEAR    N/A N/A N/A CALM      29.98S
SHELBYVILLE    CLEAR     55  54  94 SE3       30.01S
$$

TNZ017-018-042-046-047-291000-
NORTHEAST TENNESSEE

CITY           SKY/WX    TMP DP  RH WIND       PRES   REMARKS
TRI CITIES     CLEAR     54  52  93 N3        30.02R
$$

TNZ012-013-036-069-073-074-291000-
CENTRAL EAST TENNESSEE

CITY           SKY/WX    TMP DP  RH WIND       PRES   REMARKS
KNOXVILLE      CLEAR     60  55  83 CALM      30.01
OAK RIDGE      CLEAR     65  50  58 CALM      30.02R
GATLINBURG     SUNNY     55  54  94 CALM      30.02S
MORRISTOWN     SUNNY     57  54  88 S5        30.01S
$$

TNZ083-085-099-291000-
SOUTHEAST TENNESSEE

CITY           SKY/WX    TMP DP  RH WIND       PRES   REMARKS
CHATTANOOGA    CLEAR     60  56  86 E3        30.00R
$$

SKY/WX REPORTED AS FAIR MEANS FEW OR NO CLOUDS BELOW
12 THOUSAND FEET.




USA.gov is the U.S. government's official web portal to all federal, state and local government web resources and services.